Location: ?????
(55.8833°N, 37.6500°E)
Time: 07:50:41
(UTC+00:00)

Cosmos 2369 Rocket - Pass Details

Date: 27 February 2020
Orbit: 827 x 854 km, 71.0° (Epoch: 03 April)

Event Time Altitude Azimuth Distance (km) Brightness Sun altitude
Rises 15:30:05 0° 199° (SSW) 3,388 5.7 -5.2°
Reaches altitude 10° 15:32:32 10° 196° (SSW) 2,461 5.0 -5.6°
Maximum altitude 15:38:06 63° 117° (ESE) 950 2.3 -6.4°
Drops below altitude 10° 15:43:45 10° 38° (NE) 2,492 4.3 -7.1°
Sets 15:46:14 0° 36° (NE) 3,434 5.0 -7.5°
